Year,Month,Day,Hour,Minute,Value (Times are PST for temperature in C)
2012,08,05,00,00,23.10
2012,08,05,00,01,23.20
2012,08,05,00,02,23.20
2012,08,05,00,03,23.20
2012,08,05,00,04,23.20
2012,08,05,00,05,23.30
2012,08,05,00,06,23.30
2012,08,05,00,07,23.30
2012,08,05,00,08,23.30
2012,08,05,00,09,23.30
2012,08,05,00,10,23.30
2012,08,05,00,11,23.30
2012,08,05,00,12,23.30
2012,08,05,00,13,23.30
2012,08,05,00,14,23.30
2012,08,05,00,15,23.30
2012,08,05,00,16,23.30
2012,08,05,00,17,23.30
2012,08,05,00,18,23.30
2012,08,05,00,19,23.30
2012,08,05,00,20,23.30
2012,08,05,00,21,23.30
2012,08,05,00,22,23.30
2012,08,05,00,23,23.30
2012,08,05,00,24,23.30
2012,08,05,00,25,23.20
2012,08,05,00,26,23.20
2012,08,05,00,27,23.20
2012,08,05,00,28,23.20
2012,08,05,00,29,23.20
2012,08,05,00,30,23.20
2012,08,05,00,31,23.20
2012,08,05,00,32,23.20
2012,08,05,00,33,23.20
2012,08,05,00,34,23.20
2012,08,05,00,35,23.20
2012,08,05,00,36,23.10
2012,08,05,00,37,23.10
2012,08,05,00,38,23.10
2012,08,05,00,39,23.10
2012,08,05,00,40,23.10
2012,08,05,00,41,23.10
2012,08,05,00,42,23.00
2012,08,05,00,43,23.00
2012,08,05,00,44,22.90
2012,08,05,00,45,22.90
2012,08,05,00,46,22.90
2012,08,05,00,47,22.90
2012,08,05,00,48,22.90
2012,08,05,00,49,22.80
2012,08,05,00,50,22.80
2012,08,05,00,51,22.80
2012,08,05,00,52,22.80
2012,08,05,00,53,22.70
2012,08,05,00,54,22.70
2012,08,05,00,55,22.70
2012,08,05,00,56,22.70
2012,08,05,00,57,22.70
2012,08,05,00,58,22.60
2012,08,05,00,59,22.60
2012,08,05,01,00,22.60
2012,08,05,01,01,22.60
2012,08,05,01,02,22.50
2012,08,05,01,03,22.50
2012,08,05,01,04,22.40
2012,08,05,01,05,22.40
2012,08,05,01,06,22.40
2012,08,05,01,07,22.40
2012,08,05,01,08,22.40
2012,08,05,01,09,22.40
2012,08,05,01,10,22.40
2012,08,05,01,11,22.40
2012,08,05,01,12,22.40
2012,08,05,01,13,22.40
2012,08,05,01,14,22.50
2012,08,05,01,15,22.50
2012,08,05,01,16,22.50
2012,08,05,01,17,22.50
2012,08,05,01,18,22.50
2012,08,05,01,19,22.50
2012,08,05,01,20,22.60
2012,08,05,01,21,22.50
2012,08,05,01,22,22.50
2012,08,05,01,23,22.50
2012,08,05,01,24,22.50
2012,08,05,01,25,22.40
2012,08,05,01,26,22.40
2012,08,05,01,27,22.40
2012,08,05,01,28,22.30
2012,08,05,01,29,22.30
2012,08,05,01,30,22.30
2012,08,05,01,31,22.20
2012,08,05,01,32,22.10
2012,08,05,01,33,22.00
2012,08,05,01,34,22.00
2012,08,05,01,35,21.90
2012,08,05,01,36,21.80
2012,08,05,01,37,21.70
2012,08,05,01,38,21.70
2012,08,05,01,39,21.60
2012,08,05,01,40,21.60
2012,08,05,01,41,21.50
2012,08,05,01,42,21.40
2012,08,05,01,43,21.40
2012,08,05,01,44,21.30
2012,08,05,01,45,21.30
2012,08,05,01,46,21.20
2012,08,05,01,47,21.20
2012,08,05,01,48,21.20
2012,08,05,01,49,21.20
2012,08,05,01,50,21.10
2012,08,05,01,51,21.10
2012,08,05,01,52,21.10
2012,08,05,01,53,21.10
2012,08,05,01,54,21.00
2012,08,05,01,55,21.00
2012,08,05,01,56,21.00
2012,08,05,01,57,20.90
2012,08,05,01,58,20.90
2012,08,05,01,59,20.90
2012,08,05,02,00,20.90
2012,08,05,02,01,20.90
2012,08,05,02,02,20.80
2012,08,05,02,03,20.80
2012,08,05,02,04,20.80
2012,08,05,02,05,20.80
2012,08,05,02,06,20.80
2012,08,05,02,07,20.70
2012,08,05,02,08,20.70
2012,08,05,02,09,20.70
2012,08,05,02,10,20.70
2012,08,05,02,11,20.60
2012,08,05,02,12,20.60
2012,08,05,02,13,20.60
2012,08,05,02,14,20.60
2012,08,05,02,15,20.60
2012,08,05,02,16,20.60
2012,08,05,02,17,20.50
2012,08,05,02,18,20.50
2012,08,05,02,19,20.50
2012,08,05,02,20,20.50
2012,08,05,02,21,20.40
2012,08,05,02,22,20.40
2012,08,05,02,23,20.40
2012,08,05,02,24,20.40
2012,08,05,02,25,20.30
2012,08,05,02,26,20.30
2012,08,05,02,27,20.30
2012,08,05,02,28,20.20
2012,08,05,02,29,20.20
2012,08,05,02,30,20.20
2012,08,05,02,31,20.10
2012,08,05,02,32,20.10
2012,08,05,02,33,20.10
2012,08,05,02,34,20.10
2012,08,05,02,35,20.10
2012,08,05,02,36,20.00
2012,08,05,02,37,20.00
2012,08,05,02,38,20.00
2012,08,05,02,39,20.00
2012,08,05,02,40,19.90
2012,08,05,02,41,19.90
2012,08,05,02,42,19.90
2012,08,05,02,43,19.90
2012,08,05,02,44,19.90
2012,08,05,02,45,19.90
2012,08,05,02,46,19.90
2012,08,05,02,47,19.90
2012,08,05,02,48,19.90
2012,08,05,02,49,19.90
2012,08,05,02,50,19.90
2012,08,05,02,51,20.00
2012,08,05,02,52,20.00
2012,08,05,02,53,20.10
2012,08,05,02,54,20.10
2012,08,05,02,55,20.10
2012,08,05,02,56,20.20
2012,08,05,02,57,20.20
2012,08,05,02,58,20.20
2012,08,05,02,59,20.20
2012,08,05,03,00,20.20
2012,08,05,03,01,20.20
2012,08,05,03,02,20.20
2012,08,05,03,03,20.20
2012,08,05,03,04,20.30
2012,08,05,03,05,20.30
2012,08,05,03,06,20.30
2012,08,05,03,07,20.30
2012,08,05,03,08,20.30
2012,08,05,03,09,20.30
2012,08,05,03,10,20.30
2012,08,05,03,11,20.30
2012,08,05,03,12,20.30
2012,08,05,03,13,20.30
2012,08,05,03,14,20.20
2012,08,05,03,15,20.20
2012,08,05,03,16,20.20
2012,08,05,03,17,20.20
2012,08,05,03,18,20.20
2012,08,05,03,19,20.20
2012,08,05,03,20,20.20
2012,08,05,03,21,20.20
2012,08,05,03,22,20.20
2012,08,05,03,23,20.20
2012,08,05,03,24,20.20
2012,08,05,03,25,20.20
2012,08,05,03,26,20.10
2012,08,05,03,27,20.20
2012,08,05,03,28,20.20
2012,08,05,03,29,20.10
2012,08,05,03,30,20.10
2012,08,05,03,31,20.10
2012,08,05,03,32,20.10
2012,08,05,03,33,20.10
2012,08,05,03,34,20.10
2012,08,05,03,35,20.10
2012,08,05,03,36,20.00
2012,08,05,03,37,20.00
2012,08,05,03,38,20.00
2012,08,05,03,39,20.00
2012,08,05,03,40,19.90
2012,08,05,03,41,19.90
2012,08,05,03,42,19.90
2012,08,05,03,43,19.90
2012,08,05,03,44,19.90
2012,08,05,03,45,19.80
2012,08,05,03,46,19.80
2012,08,05,03,47,19.70
2012,08,05,03,48,19.70
2012,08,05,03,49,19.60
2012,08,05,03,50,19.50
2012,08,05,03,51,19.50
2012,08,05,03,52,19.40
2012,08,05,03,53,19.40
2012,08,05,03,54,19.30
2012,08,05,03,55,19.30
2012,08,05,03,56,19.20
2012,08,05,03,57,19.20
2012,08,05,03,58,19.20
2012,08,05,03,59,19.10
2012,08,05,04,00,19.10
2012,08,05,04,01,19.10
2012,08,05,04,02,19.00
2012,08,05,04,03,19.00
2012,08,05,04,04,19.00
2012,08,05,04,05,19.00
2012,08,05,04,06,19.00
2012,08,05,04,07,18.90
2012,08,05,04,08,18.90
2012,08,05,04,09,18.90
2012,08,05,04,10,18.90
2012,08,05,04,11,18.90
2012,08,05,04,12,18.90
2012,08,05,04,13,18.90
2012,08,05,04,14,18.90
2012,08,05,04,15,18.90
2012,08,05,04,16,18.90
2012,08,05,04,17,18.90
2012,08,05,04,18,18.90
2012,08,05,04,19,18.90
2012,08,05,04,20,18.90
2012,08,05,04,21,18.90
2012,08,05,04,22,18.80
2012,08,05,04,23,18.80
2012,08,05,04,24,18.80
2012,08,05,04,25,18.80
2012,08,05,04,26,18.70
2012,08,05,04,27,18.70
2012,08,05,04,28,18.70
2012,08,05,04,29,18.70
2012,08,05,04,30,18.70
2012,08,05,04,31,18.70
2012,08,05,04,32,18.60
2012,08,05,04,33,18.60
2012,08,05,04,34,18.60
2012,08,05,04,35,18.60
2012,08,05,04,36,18.60
2012,08,05,04,37,18.60
2012,08,05,04,38,18.60
2012,08,05,04,39,18.60
2012,08,05,04,40,18.60
2012,08,05,04,41,18.60
2012,08,05,04,42,18.60
2012,08,05,04,43,18.60
2012,08,05,04,44,18.60
2012,08,05,04,45,18.60
2012,08,05,04,46,18.60
2012,08,05,04,47,18.60
2012,08,05,04,48,18.60
2012,08,05,04,49,18.50
2012,08,05,04,50,18.50
2012,08,05,04,51,18.50
2012,08,05,04,52,18.40
2012,08,05,04,53,18.40
2012,08,05,04,54,18.30
2012,08,05,04,55,18.30
2012,08,05,04,56,18.30
2012,08,05,04,57,18.30
2012,08,05,04,58,18.30
2012,08,05,04,59,18.30
2012,08,05,05,00,18.30
2012,08,05,05,01,18.20
2012,08,05,05,02,18.20
2012,08,05,05,03,18.20
2012,08,05,05,04,18.20
2012,08,05,05,05,18.20
2012,08,05,05,06,18.20
2012,08,05,05,07,18.20
2012,08,05,05,08,18.20
2012,08,05,05,09,18.20
2012,08,05,05,10,18.20
2012,08,05,05,11,18.20
2012,08,05,05,12,18.20
2012,08,05,05,13,18.20
2012,08,05,05,14,18.20
2012,08,05,05,15,18.20
2012,08,05,05,16,18.20
2012,08,05,05,17,18.20
2012,08,05,05,18,18.20
2012,08,05,05,19,18.20
2012,08,05,05,20,18.20
2012,08,05,05,21,18.20
2012,08,05,05,22,18.20
2012,08,05,05,23,18.20
2012,08,05,05,24,18.20
2012,08,05,05,25,18.10
2012,08,05,05,26,18.10
2012,08,05,05,27,18.00
2012,08,05,05,28,18.00
2012,08,05,05,29,17.90
2012,08,05,05,30,17.90
2012,08,05,05,31,17.90
2012,08,05,05,32,17.80
2012,08,05,05,33,17.80
2012,08,05,05,34,17.80
2012,08,05,05,35,17.80
2012,08,05,05,36,17.80
2012,08,05,05,37,17.70
2012,08,05,05,38,17.70
2012,08,05,05,39,17.70
2012,08,05,05,40,17.70
2012,08,05,05,41,17.70
2012,08,05,05,42,17.70
2012,08,05,05,43,17.70
2012,08,05,05,44,17.70
2012,08,05,05,45,17.70
2012,08,05,05,46,17.80
2012,08,05,05,47,17.80
2012,08,05,05,48,17.80
2012,08,05,05,49,17.80
2012,08,05,05,50,17.90
2012,08,05,05,51,17.90
2012,08,05,05,52,18.00
2012,08,05,05,53,18.10
2012,08,05,05,54,18.10
2012,08,05,05,55,18.10
2012,08,05,05,56,18.20
2012,08,05,05,57,18.20
2012,08,05,05,58,18.30
2012,08,05,05,59,18.30
2012,08,05,06,00,18.30
2012,08,05,06,01,18.30
2012,08,05,06,02,18.40
2012,08,05,06,03,18.40
2012,08,05,06,04,18.40
2012,08,05,06,05,18.50
2012,08,05,06,06,18.50
2012,08,05,06,07,18.60
2012,08,05,06,08,18.60
2012,08,05,06,09,18.60
2012,08,05,06,10,18.60
2012,08,05,06,11,18.60
2012,08,05,06,12,18.70
2012,08,05,06,13,18.70
2012,08,05,06,14,18.70
2012,08,05,06,15,18.70
2012,08,05,06,16,18.70
2012,08,05,06,17,18.70
2012,08,05,06,18,18.70
2012,08,05,06,19,18.70
2012,08,05,06,20,18.70
2012,08,05,06,21,18.70
2012,08,05,06,22,18.70
2012,08,05,06,23,18.80
2012,08,05,06,24,18.80
2012,08,05,06,25,18.80
2012,08,05,06,26,18.90
2012,08,05,06,27,18.90
2012,08,05,06,28,18.90
2012,08,05,06,29,19.00
2012,08,05,06,30,19.10
2012,08,05,06,31,19.10
2012,08,05,06,32,19.10
2012,08,05,06,33,19.20
2012,08,05,06,34,19.20
2012,08,05,06,35,19.30
2012,08,05,06,36,19.30
2012,08,05,06,37,19.40
2012,08,05,06,38,19.40
2012,08,05,06,39,19.50
2012,08,05,06,40,19.60
2012,08,05,06,41,19.60
2012,08,05,06,42,19.70
2012,08,05,06,43,19.80
2012,08,05,06,44,19.80
2012,08,05,06,45,19.80
2012,08,05,06,46,19.90
2012,08,05,06,47,20.00
2012,08,05,06,48,20.00
2012,08,05,06,49,20.10
2012,08,05,06,50,20.10
2012,08,05,06,51,20.10
2012,08,05,06,52,20.20
2012,08,05,06,53,20.20
2012,08,05,06,54,20.20
2012,08,05,06,55,20.30
2012,08,05,06,56,20.30
2012,08,05,06,57,20.30
2012,08,05,06,58,20.40
2012,08,05,06,59,20.40
2012,08,05,07,00,20.40
2012,08,05,07,01,20.40
2012,08,05,07,02,20.40
2012,08,05,07,03,20.50
2012,08,05,07,04,20.50
2012,08,05,07,05,20.60
2012,08,05,07,06,20.60
2012,08,05,07,07,20.60
2012,08,05,07,08,20.70
2012,08,05,07,09,20.70
2012,08,05,07,10,20.70
2012,08,05,07,11,20.70
2012,08,05,07,12,20.70
2012,08,05,07,13,20.70
2012,08,05,07,14,20.70
2012,08,05,07,15,20.80
2012,08,05,07,16,20.80
2012,08,05,07,17,20.80
2012,08,05,07,18,20.80
2012,08,05,07,19,20.80
2012,08,05,07,20,20.90
2012,08,05,07,21,20.90
2012,08,05,07,22,20.90
2012,08,05,07,23,20.90
2012,08,05,07,24,21.00
2012,08,05,07,25,21.00
2012,08,05,07,26,21.10
2012,08,05,07,27,21.10
2012,08,05,07,28,21.10
2012,08,05,07,29,21.10
2012,08,05,07,30,21.20
2012,08,05,07,31,21.20
2012,08,05,07,32,21.30
2012,08,05,07,33,21.30
2012,08,05,07,34,21.30
2012,08,05,07,35,21.30
2012,08,05,07,36,21.30
2012,08,05,07,37,21.30
2012,08,05,07,38,21.30
2012,08,05,07,39,21.30
2012,08,05,07,40,21.30
2012,08,05,07,41,21.30
2012,08,05,07,42,21.20
2012,08,05,07,43,21.20
2012,08,05,07,44,21.10
2012,08,05,07,45,21.10
2012,08,05,07,46,21.10
2012,08,05,07,47,21.10
2012,08,05,07,48,21.00
2012,08,05,07,49,21.00
2012,08,05,07,50,21.10
2012,08,05,07,51,21.10
2012,08,05,07,52,21.20
2012,08,05,07,53,21.30
2012,08,05,07,54,21.30
2012,08,05,07,55,21.40
2012,08,05,07,56,21.40
2012,08,05,07,57,21.50
2012,08,05,07,58,21.50
2012,08,05,07,59,21.60
2012,08,05,08,00,21.70
2012,08,05,08,01,21.70
2012,08,05,08,02,21.80
2012,08,05,08,03,21.80
2012,08,05,08,04,21.80
2012,08,05,08,05,21.80
2012,08,05,08,06,21.80
2012,08,05,08,07,21.80
2012,08,05,08,08,21.90
2012,08,05,08,09,21.90
2012,08,05,08,10,21.90
2012,08,05,08,11,21.90
2012,08,05,08,12,22.00
2012,08,05,08,13,22.10
2012,08,05,08,14,22.20
2012,08,05,08,15,22.30
2012,08,05,08,16,22.30
2012,08,05,08,17,22.40
2012,08,05,08,18,22.50
2012,08,05,08,19,22.50
2012,08,05,08,20,22.60
2012,08,05,08,21,22.60
2012,08,05,08,22,22.70
2012,08,05,08,23,22.80
2012,08,05,08,24,22.80
2012,08,05,08,25,22.90
2012,08,05,08,26,23.00
2012,08,05,08,27,23.10
2012,08,05,08,28,23.10
2012,08,05,08,29,23.20
2012,08,05,08,30,23.20
2012,08,05,08,31,23.30
2012,08,05,08,32,23.30
2012,08,05,08,33,23.30
2012,08,05,08,34,23.40
2012,08,05,08,35,23.40
2012,08,05,08,36,23.40
2012,08,05,08,37,23.40
2012,08,05,08,38,23.40
2012,08,05,08,39,23.40
2012,08,05,08,40,23.40
2012,08,05,08,41,23.40
2012,08,05,08,42,23.50
2012,08,05,08,43,23.50
2012,08,05,08,44,23.50
2012,08,05,08,45,23.60
2012,08,05,08,46,23.60
2012,08,05,08,47,23.60
2012,08,05,08,48,23.70
2012,08,05,08,49,23.70
2012,08,05,08,50,23.70
2012,08,05,08,51,23.80
2012,08,05,08,52,23.80
2012,08,05,08,53,23.80
2012,08,05,08,54,23.80
2012,08,05,08,55,23.90
2012,08,05,08,56,23.90
2012,08,05,08,57,24.00
2012,08,05,08,58,24.00
2012,08,05,08,59,24.10
2012,08,05,09,00,24.20
2012,08,05,09,01,24.20
2012,08,05,09,02,24.20
2012,08,05,09,03,24.20
2012,08,05,09,04,24.30
2012,08,05,09,05,24.30
2012,08,05,09,06,24.30
2012,08,05,09,07,24.30
2012,08,05,09,08,24.40
2012,08,05,09,09,24.40
2012,08,05,09,10,24.40
2012,08,05,09,11,24.50
2012,08,05,09,12,24.50
2012,08,05,09,13,24.60
2012,08,05,09,14,24.60
2012,08,05,09,15,24.70
2012,08,05,09,16,24.80
2012,08,05,09,17,24.80
2012,08,05,09,18,25.00
2012,08,05,09,19,25.00
2012,08,05,09,20,25.10
2012,08,05,09,21,25.10
2012,08,05,09,22,25.10
2012,08,05,09,23,25.20
2012,08,05,09,24,25.20
2012,08,05,09,25,25.20
2012,08,05,09,26,25.20
2012,08,05,09,27,25.30
2012,08,05,09,28,25.30
2012,08,05,09,29,25.30
2012,08,05,09,30,25.30
2012,08,05,09,31,25.30
2012,08,05,09,32,25.20
2012,08,05,09,33,25.20
2012,08,05,09,34,25.20
2012,08,05,09,35,25.20
2012,08,05,09,36,25.20
2012,08,05,09,37,25.20
2012,08,05,09,38,25.20
2012,08,05,09,39,25.20
2012,08,05,09,40,25.20
2012,08,05,09,41,25.30
2012,08,05,09,42,25.30
2012,08,05,09,43,25.30
2012,08,05,09,44,25.30
2012,08,05,09,45,25.30
2012,08,05,09,46,25.30
2012,08,05,09,47,25.30
2012,08,05,09,48,25.30
2012,08,05,09,49,25.30
2012,08,05,09,50,25.30
2012,08,05,09,51,25.40
2012,08,05,09,52,25.40
2012,08,05,09,53,25.40
2012,08,05,09,54,25.40
2012,08,05,09,55,25.30
2012,08,05,09,56,25.30
2012,08,05,09,57,25.20
2012,08,05,09,58,25.20
2012,08,05,09,59,25.20
2012,08,05,10,00,25.20
2012,08,05,10,01,25.20
2012,08,05,10,02,25.30
2012,08,05,10,03,25.30
2012,08,05,10,04,25.30
2012,08,05,10,05,25.30
2012,08,05,10,06,25.30
2012,08,05,10,07,25.30
2012,08,05,10,08,25.40
2012,08,05,10,09,25.50
2012,08,05,10,10,25.50
2012,08,05,10,11,25.50
2012,08,05,10,12,25.50
2012,08,05,10,13,25.50
2012,08,05,10,14,25.50
2012,08,05,10,15,25.50
2012,08,05,10,16,25.60
2012,08,05,10,17,25.70
2012,08,05,10,18,25.80
2012,08,05,10,19,25.80
2012,08,05,10,20,25.80
2012,08,05,10,21,25.80
2012,08,05,10,22,25.90
2012,08,05,10,23,25.90
2012,08,05,10,24,26.00
2012,08,05,10,25,26.00
2012,08,05,10,26,26.00
2012,08,05,10,27,26.00
2012,08,05,10,28,26.00
2012,08,05,10,29,26.00
2012,08,05,10,30,25.90
2012,08,05,10,31,25.90
2012,08,05,10,32,26.00
2012,08,05,10,33,26.00
2012,08,05,10,34,26.10
2012,08,05,10,35,26.20
2012,08,05,10,36,26.30
2012,08,05,10,37,26.40
2012,08,05,10,38,26.30
2012,08,05,10,39,26.30
2012,08,05,10,40,26.20
2012,08,05,10,41,26.20
2012,08,05,10,42,26.30
2012,08,05,10,43,26.30
2012,08,05,10,44,26.30
2012,08,05,10,45,26.30
2012,08,05,10,46,26.40
2012,08,05,10,47,26.40
2012,08,05,10,48,26.50
2012,08,05,10,49,26.50
2012,08,05,10,50,26.50
2012,08,05,10,51,26.60
2012,08,05,10,52,26.50
2012,08,05,10,53,26.60
2012,08,05,10,54,26.60
2012,08,05,10,55,26.60
2012,08,05,10,56,26.60
2012,08,05,10,57,26.60
2012,08,05,10,58,26.60
2012,08,05,10,59,26.60
2012,08,05,11,00,26.60
2012,08,05,11,01,26.60
2012,08,05,11,02,26.60
2012,08,05,11,03,26.60
2012,08,05,11,04,26.60
2012,08,05,11,05,26.60
2012,08,05,11,06,26.70
2012,08,05,11,07,26.70
2012,08,05,11,08,26.70
2012,08,05,11,09,26.80
2012,08,05,11,10,26.80
2012,08,05,11,11,26.80
2012,08,05,11,12,26.80
2012,08,05,11,13,26.80
2012,08,05,11,14,26.80
2012,08,05,11,15,26.80
2012,08,05,11,16,26.80
2012,08,05,11,17,26.90
2012,08,05,11,18,26.90
2012,08,05,11,19,27.00
2012,08,05,11,20,27.00
2012,08,05,11,21,27.10
2012,08,05,11,22,27.10
2012,08,05,11,23,27.10
2012,08,05,11,24,27.10
2012,08,05,11,25,27.10
2012,08,05,11,26,27.10
2012,08,05,11,27,27.10
2012,08,05,11,28,27.10
2012,08,05,11,29,27.10
2012,08,05,11,30,27.10
2012,08,05,11,31,27.10
2012,08,05,11,32,27.10
2012,08,05,11,33,27.20
2012,08,05,11,34,27.30
2012,08,05,11,35,27.30
2012,08,05,11,36,27.30
2012,08,05,11,37,27.30
2012,08,05,11,38,27.30
2012,08,05,11,39,27.30
2012,08,05,11,40,27.30
2012,08,05,11,41,27.30
2012,08,05,11,42,27.30
2012,08,05,11,43,27.40
2012,08,05,11,44,27.50
2012,08,05,11,45,27.60
2012,08,05,11,46,27.50
2012,08,05,11,47,27.40
2012,08,05,11,48,27.30
2012,08,05,11,49,27.30
2012,08,05,11,50,27.20
2012,08,05,11,51,27.20
2012,08,05,11,52,27.20
2012,08,05,11,53,27.20
2012,08,05,11,54,27.20
2012,08,05,11,55,27.30
2012,08,05,11,56,27.30
2012,08,05,11,57,27.40
2012,08,05,11,58,27.40
2012,08,05,11,59,27.30
2012,08,05,12,00,27.30
2012,08,05,12,01,27.30
2012,08,05,12,02,27.30
2012,08,05,12,03,27.30
2012,08,05,12,04,27.40
2012,08,05,12,05,27.40
2012,08,05,12,06,27.30
2012,08,05,12,07,27.20
2012,08,05,12,08,27.20
2012,08,05,12,09,27.20
2012,08,05,12,10,27.20
2012,08,05,12,11,27.20
2012,08,05,12,12,27.20
2012,08,05,12,13,27.30
2012,08,05,12,14,27.30
2012,08,05,12,15,27.40
2012,08,05,12,16,27.50
2012,08,05,12,17,27.50
2012,08,05,12,18,27.50
2012,08,05,12,19,27.50
2012,08,05,12,20,27.60
2012,08,05,12,21,27.60
2012,08,05,12,22,27.60
2012,08,05,12,23,27.60
2012,08,05,12,24,27.60
2012,08,05,12,25,27.70
2012,08,05,12,26,27.80
2012,08,05,12,27,27.90
2012,08,05,12,28,27.90
2012,08,05,12,29,28.00
2012,08,05,12,30,28.10
2012,08,05,12,31,28.10
2012,08,05,12,32,28.10
2012,08,05,12,33,28.00
2012,08,05,12,34,28.00
2012,08,05,12,35,28.00
2012,08,05,12,36,28.00
2012,08,05,12,37,28.00
2012,08,05,12,38,28.00
2012,08,05,12,39,28.00
2012,08,05,12,40,28.10
2012,08,05,12,41,28.10
2012,08,05,12,42,28.20
2012,08,05,12,43,28.20
2012,08,05,12,44,28.20
2012,08,05,12,45,28.20
2012,08,05,12,46,28.30
2012,08,05,12,47,28.30
2012,08,05,12,48,28.40
2012,08,05,12,49,28.40
2012,08,05,12,50,28.40
2012,08,05,12,51,28.50
2012,08,05,12,52,28.50
2012,08,05,12,53,28.50
2012,08,05,12,54,28.50
2012,08,05,12,55,28.30
2012,08,05,12,56,28.10
2012,08,05,12,57,27.70
2012,08,05,12,58,27.40
2012,08,05,12,59,27.10
2012,08,05,13,00,26.80
2012,08,05,13,01,26.60
2012,08,05,13,02,26.30
2012,08,05,13,03,26.10
2012,08,05,13,04,25.90
2012,08,05,13,05,25.80
2012,08,05,13,06,25.80
2012,08,05,13,07,25.70
2012,08,05,13,08,25.70
2012,08,05,13,09,25.60
2012,08,05,13,10,25.60
2012,08,05,13,11,25.40
2012,08,05,13,12,25.30
2012,08,05,13,13,25.20
2012,08,05,13,14,25.00
2012,08,05,13,15,24.90
2012,08,05,13,16,24.70
2012,08,05,13,17,24.60
2012,08,05,13,18,24.40
2012,08,05,13,19,24.30
2012,08,05,13,20,24.30
2012,08,05,13,21,24.10
2012,08,05,13,22,24.00
2012,08,05,13,23,23.90
2012,08,05,13,24,23.80
2012,08,05,13,25,23.70
2012,08,05,13,26,23.60
2012,08,05,13,27,23.40
2012,08,05,13,28,23.30
2012,08,05,13,29,23.20
2012,08,05,13,30,23.20
2012,08,05,13,31,23.20
2012,08,05,13,32,23.10
2012,08,05,13,33,23.00
2012,08,05,13,34,23.00
2012,08,05,13,35,23.00
2012,08,05,13,36,23.00
2012,08,05,13,37,23.10
2012,08,05,13,38,23.10
2012,08,05,13,39,23.10
2012,08,05,13,40,23.20
2012,08,05,13,41,23.20
2012,08,05,13,42,23.30
2012,08,05,13,43,23.40
2012,08,05,13,44,23.50
2012,08,05,13,45,23.60
2012,08,05,13,46,23.60
2012,08,05,13,47,23.60
2012,08,05,13,48,23.70
2012,08,05,13,49,23.70
2012,08,05,13,50,23.70
2012,08,05,13,51,23.70
2012,08,05,13,52,23.70
2012,08,05,13,53,23.80
2012,08,05,13,54,23.80
2012,08,05,13,55,23.80
2012,08,05,13,56,23.80
2012,08,05,13,57,23.90
2012,08,05,13,58,24.00
2012,08,05,13,59,24.00
2012,08,05,14,00,23.90
2012,08,05,14,01,23.90
2012,08,05,14,02,23.90
2012,08,05,14,03,23.90
2012,08,05,14,04,23.90
2012,08,05,14,05,23.80
2012,08,05,14,06,23.80
2012,08,05,14,07,23.80
2012,08,05,14,08,23.80
2012,08,05,14,09,23.70
2012,08,05,14,10,23.60
2012,08,05,14,11,23.60
2012,08,05,14,12,23.40
2012,08,05,14,13,23.40
2012,08,05,14,14,23.30
2012,08,05,14,15,23.20
2012,08,05,14,16,23.20
2012,08,05,14,17,23.20
2012,08,05,14,18,23.20
2012,08,05,14,19,23.20
2012,08,05,14,20,23.20
2012,08,05,14,21,23.20
2012,08,05,14,22,23.20
2012,08,05,14,23,23.20
2012,08,05,14,24,23.20
2012,08,05,14,25,23.20
2012,08,05,14,26,23.20
2012,08,05,14,27,23.30
2012,08,05,14,28,23.30
2012,08,05,14,29,23.30
2012,08,05,14,30,23.50
2012,08,05,14,31,23.60
2012,08,05,14,32,23.70
2012,08,05,14,33,23.90
2012,08,05,14,34,24.00
2012,08,05,14,35,24.10
2012,08,05,14,36,24.10
2012,08,05,14,37,24.30
2012,08,05,14,38,24.30
2012,08,05,14,39,24.50
2012,08,05,14,40,24.50
2012,08,05,14,41,24.60
2012,08,05,14,42,24.60
2012,08,05,14,43,24.60
2012,08,05,14,44,24.60
2012,08,05,14,45,24.60
2012,08,05,14,46,24.60
2012,08,05,14,47,24.60
2012,08,05,14,48,24.70
2012,08,05,14,49,24.80
2012,08,05,14,50,24.80
2012,08,05,14,51,24.80
2012,08,05,14,52,24.80
2012,08,05,14,53,24.70
2012,08,05,14,54,24.70
2012,08,05,14,55,24.70
2012,08,05,14,56,24.70
2012,08,05,14,57,24.70
2012,08,05,14,58,24.60
2012,08,05,14,59,24.60
2012,08,05,15,00,24.60
2012,08,05,15,01,24.60
2012,08,05,15,02,24.60
2012,08,05,15,03,24.60
2012,08,05,15,04,24.70
2012,08,05,15,05,24.70
2012,08,05,15,06,24.70
2012,08,05,15,07,24.70
2012,08,05,15,08,24.80
2012,08,05,15,09,24.80
2012,08,05,15,10,24.80
2012,08,05,15,11,24.80
2012,08,05,15,12,24.80
2012,08,05,15,13,24.70
2012,08,05,15,14,24.70
2012,08,05,15,15,24.60
2012,08,05,15,16,24.60
2012,08,05,15,17,24.60
2012,08,05,15,18,24.50
2012,08,05,15,19,24.50
2012,08,05,15,20,24.50
2012,08,05,15,21,24.50
2012,08,05,15,22,24.60
2012,08,05,15,23,24.60
2012,08,05,15,24,24.70
2012,08,05,15,25,24.80
2012,08,05,15,26,24.80
2012,08,05,15,27,24.90
2012,08,05,15,28,25.00
2012,08,05,15,29,25.00
2012,08,05,15,30,25.10
2012,08,05,15,31,25.10
2012,08,05,15,32,25.10
2012,08,05,15,33,25.10
2012,08,05,15,34,25.00
2012,08,05,15,35,25.10
2012,08,05,15,36,25.10
2012,08,05,15,37,25.10
2012,08,05,15,38,25.10
2012,08,05,15,39,25.00
2012,08,05,15,40,25.00
2012,08,05,15,41,25.10
2012,08,05,15,42,25.20
2012,08,05,15,43,25.30
2012,08,05,15,44,25.50
2012,08,05,15,45,25.70
2012,08,05,15,46,25.80
2012,08,05,15,47,25.90
2012,08,05,15,48,26.00
2012,08,05,15,49,26.00
2012,08,05,15,50,26.00
2012,08,05,15,51,26.00
2012,08,05,15,52,25.90
2012,08,05,15,53,25.90
2012,08,05,15,54,25.80
2012,08,05,15,55,25.80
2012,08,05,15,56,25.80
2012,08,05,15,57,25.80
2012,08,05,15,58,25.80
2012,08,05,15,59,25.70
2012,08,05,16,00,25.80
2012,08,05,16,01,25.80
2012,08,05,16,02,25.90
2012,08,05,16,03,26.00
2012,08,05,16,04,26.10
2012,08,05,16,05,26.20
2012,08,05,16,06,26.20
2012,08,05,16,07,26.10
2012,08,05,16,08,26.00
2012,08,05,16,09,25.90
2012,08,05,16,10,25.90
2012,08,05,16,11,25.80
2012,08,05,16,12,25.80
2012,08,05,16,13,25.70
2012,08,05,16,14,25.70
2012,08,05,16,15,25.60
2012,08,05,16,16,25.50
2012,08,05,16,17,25.50
2012,08,05,16,18,25.40
2012,08,05,16,19,25.50
2012,08,05,16,20,25.60
2012,08,05,16,21,25.70
2012,08,05,16,22,25.70
2012,08,05,16,23,25.80
2012,08,05,16,24,25.80
2012,08,05,16,25,25.90
2012,08,05,16,26,25.90
2012,08,05,16,27,26.00
2012,08,05,16,28,26.00
2012,08,05,16,29,26.00
2012,08,05,16,30,25.90
2012,08,05,16,31,25.90
2012,08,05,16,32,25.80
2012,08,05,16,33,25.80
2012,08,05,16,34,25.80
2012,08,05,16,35,25.80
2012,08,05,16,36,25.80
2012,08,05,16,37,25.80
2012,08,05,16,38,25.80
2012,08,05,16,39,25.80
2012,08,05,16,40,25.70
2012,08,05,16,41,25.70
2012,08,05,16,42,25.70
2012,08,05,16,43,25.70
2012,08,05,16,44,25.70
2012,08,05,16,45,25.70
2012,08,05,16,46,25.70
2012,08,05,16,47,25.70
2012,08,05,16,48,25.70
2012,08,05,16,49,25.70
2012,08,05,16,50,25.70
2012,08,05,16,51,25.60
2012,08,05,16,52,25.60
2012,08,05,16,53,25.60
2012,08,05,16,54,25.60
2012,08,05,16,55,25.50
2012,08,05,16,56,25.50
2012,08,05,16,57,25.50
2012,08,05,16,58,25.60
2012,08,05,16,59,25.60
2012,08,05,17,00,25.60
2012,08,05,17,01,25.70
2012,08,05,17,02,25.70
2012,08,05,17,03,25.70
2012,08,05,17,04,25.70
2012,08,05,17,05,25.70
2012,08,05,17,06,25.80
2012,08,05,17,07,25.80
2012,08,05,17,08,25.90
2012,08,05,17,09,25.90
2012,08,05,17,10,25.90
2012,08,05,17,11,25.80
2012,08,05,17,12,25.70
2012,08,05,17,13,25.50
2012,08,05,17,14,25.30
2012,08,05,17,15,25.30
2012,08,05,17,16,25.20
2012,08,05,17,17,25.20
2012,08,05,17,18,25.20
2012,08,05,17,19,25.10